Tracking 17151 objects as of 4-May-2015
HD Live streaming from Space Station

COSMOS 2251 DEB

Track COSMOS 2251 DEB now!
10-day predictions
COSMOS 2251 DEB is classified as:


NORAD ID: 38196
Int'l Code: 1993-036BSL
Perigee: 630.4 km
Apogee: 942.2 km
Inclination: 73.9 °
Period: 100.4 minutes
Semi major axis: 7157 km
RCS: 0.0033 m2 (small)
Launch date: June 16, 1993
Source: Commonwealth of Independent States (former USSR) (CIS)

Note: This is SATELLITE DEBRIS
Your satellite tracking list
Your tracking list is empty





NASA's NSSDC Master Catalog

Two Line Element Set (TLE):
1 38196U 93036BSL 15121.06856628  .00014128  00000-0  38966-2 0  9999
2 38196 073.8950 257.3128 0217806 166.8148 317.7799 14.33767080216659

Source of the keplerian elements: AFSPC

N2YO: 4592